Location: Newark
(46.7000°N, 60.6000°W)
Time: 10:17:15
(UTC+00:00)

Transit 2A Rocket - Pass Details

Date: 30 October 2020
Orbit: 588 x 915 km, 66.7° (Epoch: 23 November)

Event Time Altitude Azimuth Distance (km) Brightness Sun altitude
Rises 12:39:09 0° 193° (SSW) 3,533 8.8 16.2°
Reaches altitude 10° 12:41:45 10° 188° (S) 2,597 8.3 16.6°
Maximum altitude 12:47:34 49° 116° (ESE) 1,155 7.0 17.3°
Drops below altitude 10° 12:53:13 10° 43° (NE) 2,526 7.7 18.0°
Sets 12:55:43 0° 38° (NE) 3,429 8.3 18.3°
